Weather History for KBMG - August, 2012

Change the Weather History Date:

Friday, August 3, 2012

  Actual Average Record
Temperature  
Mean Temperature 77 °F 74 °F  
Max Temperature 86 °F 84 °F 93 °F (2002)
Min Temperature 68 °F 63 °F 57 °F (1999)
Degree Days  
Heating Degree Days 0 0  
Month to date heating degree days 0 0  
Since 1 June heating degree days 22 17  
Since 1 July heating degree days 0 2  
Cooling Degree Days 12 9  
Month to date cooling degree days 38 27  
Year to date cooling degree days 1000 593  
Since 1 June cooling degree days 799 511  
Growing Degree Days 26 (Base 50)    
Moisture  
Dew Point 69 °F    
Average Humidity 77    
Maximum Humidity 93    
Minimum Humidity 61    
Precipitation  
Precipitation 0.05 in 0.12 in 0.05 in (2012)
Month to date precipitation 0.05 0.35  
Year to date precipitation 13.46 30.02  
Sea Level Pressure  
Sea Level Pressure 29.88 in    
Wind  
Wind Speed 6 mph (SE)    
Max Wind Speed 14 mph    
Max Gust Speed 23 mph    
Visibility 10 miles    
Events Rain    
T = Trace of Precipitation, MM = Missing Value Source: NWS Daily Summary

Daily Weather History Graph

Daily Weather History Graph

Search for Another Location

Airport or City:

Trip Planner

Search our weather history database for the weather conditions in past years. The results will help you decide how hot, cold, wet, or windy it might be!

Date:

Astronomy

Aug. 03, 2012 Rise Set
Actual Time 6:49 AM EDT 8:55 PM EDT
Civil Twilight 6:19 AM EDT 9:25 PM EDT
Nautical Twilight 5:43 AM EDT 10:01 PM EDT
Astronomical Twilight 5:03 AM EDT 10:40 PM EDT
Moon 9:35 PM EDT (8/3) 8:30 AM EDT (8/3)
Length of Visible Light 15h 05m
Length of Day
14h 06m
Full, 97% of the Moon is Illuminated
Aug 3
Full
Aug 9
Last Quarter
Aug 17
New
Aug 24
First Quarter
Aug 31
Full

Hourly Weather History & Observations

Time (EDT) Temp. Heat Index Dew Point Humidity Pressure Visibility Wind Dir Wind Speed Gust Speed Precip Events Conditions
12:53 AM 73.9 °F - 69.1 °F 85% 29.85 in 10.0 mi SW 4.6 mph - 0.00 in Rain Light Rain
1:53 AM 72.0 °F - 69.1 °F 91% 29.87 in 7.0 mi NW 4.6 mph - 0.04 in Rain Light Rain
2:13 AM 71.6 °F - 69.8 °F 94% 29.89 in 9.0 mi North 5.8 mph - 0.01 in Rain Light Rain
2:38 AM 71.6 °F - 69.8 °F 94% 29.89 in 10.0 mi WNW 3.5 mph - 0.01 in Rain Light Rain
3:03 AM 71.6 °F - 69.8 °F 94% 29.90 in 10.0 mi NNE 5.8 mph - 0.00 in   Mostly Cloudy
3:53 AM 71.1 °F - 66.9 °F 87% 29.83 in 10.0 mi NNW 5.8 mph - 0.00 in   Partly Cloudy
4:53 AM 70.0 °F - 66.9 °F 90% 29.82 in 10.0 mi Calm Calm - N/A   Clear
5:53 AM 68.0 °F - 66.9 °F 96% 29.84 in 8.0 mi SE 3.5 mph - N/A   Clear
6:53 AM 69.1 °F - 66.9 °F 93% 29.84 in 9.0 mi Calm Calm - N/A   Clear
7:53 AM 70.0 °F - 66.9 °F 90% 29.86 in 10.0 mi Calm Calm - N/A   Partly Cloudy
8:53 AM 72.0 °F - 66.9 °F 84% 29.88 in 10.0 mi ESE 6.9 mph - N/A   Scattered Clouds
9:53 AM 77.0 °F - 68.0 °F 74% 29.88 in 10.0 mi SSE 4.6 mph - N/A   Partly Cloudy
10:53 AM 78.1 °F - 68.0 °F 71% 29.88 in 10.0 mi SSE 11.5 mph - N/A   Partly Cloudy
11:53 AM 80.1 °F 82.7 °F 68.0 °F 67% 29.90 in 10.0 mi SSE 10.4 mph 18.4 mph N/A   Partly Cloudy
12:53 PM 77.0 °F - 69.1 °F 76% 29.91 in 10.0 mi ESE 10.4 mph - N/A   Overcast
1:53 PM 78.1 °F - 69.1 °F 74% 29.92 in 10.0 mi ESE 10.4 mph - N/A   Overcast
2:53 PM 80.1 °F 82.9 °F 69.1 °F 69% 29.90 in 10.0 mi SE 9.2 mph - N/A   Mostly Cloudy
3:01 PM 80.6 °F 83.9 °F 69.8 °F 70% 29.93 in 10.0 mi SE 9.2 mph - N/A   Mostly Cloudy
3:30 PM 80.6 °F 83.9 °F 69.8 °F 70% 29.93 in 10.0 mi SSE 8.1 mph - N/A   Mostly Cloudy
3:53 PM 82.9 °F 87.0 °F 70.0 °F 65% 29.89 in 10.0 mi SSE 8.1 mph - N/A   Overcast
4:48 PM 84.2 °F 88.4 °F 69.8 °F 62% 29.90 in 10.0 mi SSE 6.9 mph - N/A   Mostly Cloudy
4:53 PM 82.9 °F 86.5 °F 69.1 °F 63% 29.87 in 10.0 mi ESE 5.8 mph - N/A   Mostly Cloudy
5:29 PM 84.2 °F 88.4 °F 69.8 °F 62% 29.89 in 10.0 mi Variable 4.6 mph - N/A   Scattered Clouds
5:53 PM 84.0 °F 87.8 °F 69.1 °F 61% 29.87 in 10.0 mi Variable 6.9 mph - N/A   Partly Cloudy
6:20 PM 84.2 °F 88.4 °F 69.8 °F 62% 29.89 in 10.0 mi ESE 10.4 mph - N/A   Mostly Cloudy
6:39 PM 84.2 °F 88.4 °F 69.8 °F 62% 29.89 in 10.0 mi SSE 8.1 mph - N/A   Scattered Clouds
6:53 PM 84.0 °F 89.0 °F 71.1 °F 65% 29.86 in 10.0 mi SE 9.2 mph - N/A   Partly Cloudy
7:53 PM 82.0 °F 86.3 °F 71.1 °F 69% 29.88 in 10.0 mi SE 6.9 mph - N/A   Clear
8:53 PM 79.0 °F - 72.0 °F 79% 29.89 in 10.0 mi SSE 5.8 mph - N/A   Clear
9:53 PM 77.0 °F - 72.0 °F 84% 29.89 in 10.0 mi ESE 4.6 mph - N/A   Clear
10:53 PM 77.0 °F - 72.0 °F 84% 29.90 in 10.0 mi SE 4.6 mph - N/A   Mostly Cloudy
11:53 PM 77.0 °F - 72.0 °F 84% 29.89 in 10.0 mi SSE 4.6 mph - N/A   Overcast